QPF
0.00 0.00 0.00 0.00 0.00 0.00 0.00 0.01 0.01 0.02 0.04 0.05 0.02 0.01 0.02 0.02 0.00 0.00 0.00 0.00 0.00 0.00 0.00 0.00 0.00 0.00 0.01 0.01 0.00 0.00 0.00 0.01 0.02 0.01 0.03 0.01 0.01 0.00 0.00 0.02 0.02 0.01 0.03
0.00 0.00 0.00 0.00 0.00 0.00 0.00 0.00 0.00 0.01 0.02 0.03 0.04 0.03 0.09 0.03 0.00 0.00 0.00 0.00 0.00 0.00 0.00 0.01 0.01 0.02 0.07 0.02 0.01 0.03 0.06 0.06 0.00 0.01 0.01 0.03 0.03 0.01 0.02 0.02 0.01 0.03 0.02
0.00 0.00 0.00 0.00 0.00 0.00 0.00 0.00 0.00 0.01 0.03 0.06 0.05 0.07 0.04 0.00 0.00 0.00 0.00 0.00 0.00 0.00 0.01 0.01 0.07 0.10 0.08 0.01 0.00 0.00 0.02 0.01 0.00 0.02 0.04 0.00 0.03 0.01 0.00 0.04 0.03 0.02 0.00
0.00 0.00 0.00 0.01 0.00 0.00 0.00 0.00 0.00 0.01 0.01 0.02 0.05 0.08 0.10 0.05 0.01 0.00 0.00 0.00 0.00 0.00 0.00 0.00 0.02 0.06 0.08 0.00 0.00 0.00 0.00 0.00 0.00 0.00 0.01 0.00 0.01 0.00 0.01 0.03 0.02 0.00 0.00
0.00 0.00 0.00 0.01 0.02 0.00 0.00 0.00 0.00 0.01 0.02 0.01 0.02 0.03 0.06 0.11 0.06 0.02 0.00 0.00 0.00 0.00 0.00 0.00 0.00 0.00 0.02 0.00 0.00 0.00 0.00 0.00 0.00 0.00 0.00 0.00 0.00 0.00 0.00 0.00 0.00 0.00 0.00
0.02 0.00 0.00 0.00 0.04 0.01 0.01 0.01 0.02 0.03 0.01 0.01 0.00 0.00 0.04 0.08 0.10 0.08 0.06 0.00 0.00 0.00 0.00 0.00 0.00 0.00 0.00 0.01 0.00 0.00 0.00 0.01 0.01 0.00 0.00 0.00 0.00 0.00 0.00 0.00 0.00 0.00 0.00
0.07 0.01 0.00 0.00 0.02 0.04 0.01 0.02 0.02 0.03 0.02 0.00 0.01 0.00 0.03 0.05 0.07 0.04 0.14 0.02 0.00 0.00 0.00 0.00 0.01 0.00 0.00 0.00 0.00 0.00 0.00 0.01 0.01 0.00 0.00 0.00 0.00 0.00 0.00 0.00 0.00 0.00 0.00
0.13 0.08 0.08 0.03 0.00 0.01 0.00 0.00 0.00 0.02 0.03 0.03 0.03 0.02 0.01 0.01 0.04 0.04 0.05 0.02 0.01 0.00 0.00 0.00 0.01 0.00 0.00 0.00 0.00 0.00 0.00 0.00 0.00 0.00 0.00 0.00 0.00 0.01 0.02 0.02 0.01 0.01 0.01
0.02 0.07 0.06 0.14 0.03 0.00 0.00 0.00 0.00 0.00 0.01 0.02 0.01 0.02 0.03 0.03 0.01 0.00 0.03 0.05 0.01 0.00 0.00 0.00 0.00 0.02 0.00 0.00 0.00 0.01 0.00 0.00 0.01 0.01 0.00 0.00 0.00 0.01 0.00 0.00 0.00 0.00 0.01
0.00 0.02 0.03 0.09 0.12 0.14 0.13 0.02 0.00 0.00 0.01 0.00 0.01 0.06 0.15 0.18 0.14 0.08 0.00 0.00 0.00 0.00 0.00 0.00 0.00 0.02 0.02 0.04 0.01 0.00 0.00 0.00 0.02 0.02 0.00 0.00 0.00 0.00 0.00 0.00 0.01 0.03 0.02
0.00 0.00 0.01 0.03 0.04 0.20 0.12 0.12 0.02 0.00 0.00 0.00 0.01 0.00 0.02 0.14 0.08 0.01 0.00 0.00 0.00 0.00 0.00 0.00 0.00 0.01 0.01 0.01 0.01 0.00 0.00 0.00 0.00 0.01 0.00 0.01 0.02 0.00 0.00 0.00 0.00 0.00 0.00
0.00 0.00 0.00 0.00 0.02 0.08 0.07 0.09 0.11 0.09 0.02 0.01 0.00 0.01 0.04 0.07 0.06 0.00 0.00 0.00 0.00 0.00 0.00 0.00 0.00 0.01 0.00 0.00 0.00 0.00 0.00 0.00 0.00 0.01 0.01 0.04 0.04 0.00 0.00 0.00 0.00 0.00 0.00
0.00 0.00 0.00 0.00 0.00 0.00 0.02 0.04 0.05 0.11 0.13 0.20 0.18 0.16 0.23 0.17 0.01 0.00 0.00 0.00 0.00 0.00 0.00 0.00 0.00 0.00 0.00 0.00 0.00 0.00 0.00 0.00 0.00 0.00 0.01 0.05 0.03 0.03 0.00 0.00 0.00 0.00 0.00
0.00 0.00 0.00 0.00 0.00 0.00 0.00 0.00 0.00 0.01 0.05 0.14 0.29 0.34 0.37 0.24 0.04 0.00 0.00 0.00 0.00 0.00 0.00 0.00 0.00 0.00 0.00 0.01 0.00 0.00 0.00 0.00 0.01 0.03 0.00 0.02 0.04 0.06 0.00 0.00 0.00 0.00 0.00
0.00 0.00 0.00 0.00 0.00 0.00 0.00 0.00 0.00 0.00 0.00 0.01 0.07 0.20 0.27 0.29 0.15 0.04 0.01 0.01 0.00 0.00 0.00 0.00 0.01 0.00 0.00 0.02 0.01 0.00 0.00 0.00 0.02 0.01 0.00 0.01 0.06 0.05 0.01 0.00 0.00 0.00 0.00
0.00 0.00 0.00 0.00 0.00 0.00 0.00 0.00 0.00 0.00 0.00 0.00 0.00 0.01 0.04 0.20 0.63 0.70 0.22 0.05 0.03 0.01 0.00 0.01 0.00 0.00 0.00 0.01 0.01 0.00 0.00 0.01 0.00 0.00 0.00 0.01 0.04 0.02 0.01 0.00 0.00 0.00 0.00
0.00 0.00 0.00 0.00 0.00 0.00 0.00 0.00 0.00 0.00 0.00 0.00 0.00 0.00 0.00 0.02 0.09 0.33 0.61 0.54 0.23 0.12 0.06 0.01 0.00 0.00 0.00 0.00 0.00 0.00 0.00 0.01 0.00 0.00 0.00 0.00 0.00 0.01 0.01 0.01 0.00 0.00 0.00
0.00 0.00 0.00 0.00 0.00 0.00 0.00 0.00 0.00 0.00 0.00 0.00 0.00 0.00 0.00 0.00 0.00 0.01 0.05 0.14 0.14 0.09 0.08 0.05 0.01 0.00 0.00 0.00 0.00 0.00 0.00 0.02 0.01 0.00 0.00 0.00 0.01 0.00 0.01 0.02 0.01 0.00 0.00
0.00 0.00 0.00 0.00 0.00 0.00 0.00 0.00 0.00 0.00 0.00 0.00 0.00 0.00 0.00 0.00 0.00 0.02 0.04 0.04 0.01 0.01 0.00 0.00 0.03 0.03 0.01 0.00 0.00 0.00 0.00 0.01 0.02 0.00 0.00 0.00 0.01 0.01 0.00 0.01 0.01 0.00 0.00
0.00 0.00 0.00 0.00 0.00 0.00 0.00 0.00 0.00 0.00 0.00 0.00 0.00 0.00 0.00 0.01 0.00 0.01 0.01 0.04 0.06 0.03 0.02 0.01 0.01 0.00 0.00 0.00 0.00 0.00 0.00 0.00 0.01 0.01 0.01 0.00 0.03 0.02 0.01 0.00 0.00 0.00 0.00
0.00 0.00 0.00 0.00 0.00 0.00 0.00 0.00 0.00 0.00 0.00 0.00 0.00 0.00 0.00 0.01 0.01 0.00 0.01 0.01 0.02 0.04 0.03 0.03 0.06 0.06 0.05 0.04 0.05 0.03 0.01 0.00 0.00 0.01 0.01 0.00 0.01 0.04 0.01 0.00 0.00 0.00 0.00
0.00 0.00 0.00 0.00 0.00 0.00 0.00 0.00 0.00 0.00 0.00 0.00 0.00 0.00 0.00 0.00 0.01 0.01 0.00 0.01 0.01 0.02 0.04 0.04 0.04 0.10 0.16 0.16 0.13 0.12 0.15 0.11 0.04 0.00 0.00 0.00 0.00 0.00 0.00 0.00 0.00 0.00 0.00
0.00 0.00 0.00 0.00 0.00 0.00 0.00 0.00 0.00 0.00 0.00 0.00 0.00 0.00 0.00 0.00 0.01 0.01 0.00 0.01 0.01 0.01 0.00 0.02 0.01 0.02 0.07 0.11 0.12 0.11 0.03 0.03 0.06 0.06 0.02 0.00 0.00 0.00 0.00 0.00 0.00 0.00 0.00
0.00 0.00 0.00 0.00 0.00 0.00 0.00 0.00 0.00 0.00 0.00 0.00 0.00 0.00 0.00 0.00 0.01 0.01 0.01 0.01 0.01 0.01 0.00 0.00 0.00 0.00 0.01 0.03 0.03 0.01 0.00 0.00 0.01 0.03 0.04 0.03 0.02 0.01 0.00 0.00 0.00 0.00 0.00
0.00 0.00 0.00 0.00 0.00 0.00 0.00 0.00 0.00 0.00 0.00 0.00 0.00 0.00 0.00 0.00 0.00 0.01 0.02 0.01 0.00 0.00 0.00 0.00 0.00 0.00 0.01 0.00 0.01 0.01 0.01 0.01 0.00 0.00 0.00 0.01 0.01 0.01 0.01 0.00 0.00 0.00 0.00
0.00 0.00 0.00 0.00 0.00 0.00 0.00 0.00 0.00 0.00 0.00 0.00 0.00 0.00 0.00 0.00 0.00 0.00 0.01 0.03 0.02 0.01 0.00 0.00 0.00 0.00 0.01 0.01 0.00 0.00 0.01 0.01 0.00 0.01 0.00 0.00 0.01 0.01 0.00 0.00 0.00 0.00 0.00
MSLP
1012.55 1012.55 1012.68 1013.03 1013.14 1013.20 1013.23 1013.27 1013.50 1013.75 1013.99 1014.07 1014.17 1014.42 1014.62 1014.87 1015.05 1015.31 1015.41 1015.49 1015.64 1015.86 1015.92 1016.09 1016.24 1016.35 1016.45 1016.56 1016.77 1016.94 1017.13 1017.36 1017.56 1017.71 1017.88 1017.95 1017.96 1018.03 1018.15 1018.29 1018.42 1018.60 1018.64
1012.46 1012.71 1012.66 1013.01 1013.30 1013.41 1013.49 1013.54 1013.61 1013.90 1014.11 1014.27 1014.46 1014.58 1014.82 1015.02 1015.20 1015.43 1015.58 1015.66 1015.76 1015.97 1016.07 1016.17 1016.36 1016.49 1016.64 1016.90 1017.15 1017.34 1017.39 1017.73 1017.97 1018.16 1018.34 1018.39 1018.46 1018.55 1018.67 1018.78 1018.95 1019.07 1019.22
1012.63 1012.63 1012.75 1012.93 1013.32 1013.58 1013.66 1013.76 1013.87 1014.00 1014.26 1014.49 1014.61 1014.81 1015.04 1015.18 1015.40 1015.62 1015.75 1015.82 1015.94 1016.05 1016.23 1016.43 1016.59 1016.82 1016.92 1017.19 1017.46 1017.63 1017.80 1018.03 1018.27 1018.39 1018.61 1018.93 1018.98 1019.02 1019.24 1019.27 1019.37 1019.40 1019.59
1012.41 1012.30 1012.52 1012.96 1013.34 1013.69 1013.85 1013.96 1014.09 1014.19 1014.36 1014.57 1014.78 1015.02 1015.25 1015.38 1015.56 1015.77 1015.89 1016.02 1016.17 1016.26 1016.43 1016.65 1016.84 1017.01 1017.16 1017.46 1017.68 1017.92 1018.11 1018.29 1018.42 1018.55 1018.83 1019.19 1019.39 1019.51 1019.70 1019.72 1019.79 1020.02 1020.14
1012.14 1012.33 1012.49 1013.06 1013.48 1013.80 1014.05 1014.16 1014.29 1014.39 1014.43 1014.64 1014.81 1015.08 1015.40 1015.59 1015.73 1015.86 1015.97 1016.17 1016.39 1016.50 1016.71 1016.91 1017.15 1017.32 1017.42 1017.65 1017.91 1018.15 1018.35 1018.48 1018.68 1018.84 1019.21 1019.57 1019.82 1019.98 1020.03 1020.14 1020.28 1020.40 1020.62
1012.47 1012.47 1012.48 1013.03 1013.54 1013.97 1014.23 1014.27 1014.40 1014.51 1014.71 1014.77 1014.89 1015.08 1015.38 1015.66 1015.92 1015.92 1016.10 1016.28 1016.52 1016.61 1016.81 1017.07 1017.33 1017.55 1017.73 1017.90 1018.12 1018.33 1018.51 1018.69 1019.01 1019.20 1019.33 1019.87 1020.24 1020.36 1020.43 1020.58 1020.70 1020.83 1020.97
1012.96 1012.97 1013.21 1013.35 1013.60 1014.04 1014.32 1014.45 1014.54 1014.63 1014.73 1014.88 1015.04 1015.06 1015.36 1015.52 1015.85 1015.94 1016.29 1016.45 1016.64 1016.77 1016.92 1017.15 1017.41 1017.71 1017.96 1018.12 1018.30 1018.51 1018.68 1019.11 1019.03 1019.27 1019.62 1020.09 1020.46 1020.52 1020.60 1020.80 1020.94 1021.07 1021.23
1013.74 1013.70 1013.58 1013.63 1013.72 1014.07 1014.32 1014.50 1014.58 1014.67 1014.78 1014.95 1015.09 1015.17 1015.27 1015.48 1015.67 1015.96 1016.43 1016.60 1016.81 1016.98 1017.14 1017.37 1017.54 1017.78 1018.09 1018.27 1018.47 1018.63 1019.09 1019.32 1019.26 1019.51 1019.85 1020.25 1020.49 1020.64 1020.85 1021.14 1021.37 1021.56 1021.65
1014.38 1014.32 1014.43 1014.15 1013.98 1014.09 1014.28 1014.44 1014.62 1014.72 1014.82 1014.93 1015.08 1015.15 1015.37 1015.37 1015.63 1015.88 1016.31 1016.84 1017.00 1017.11 1017.32 1017.47 1017.76 1017.91 1018.18 1018.37 1018.70 1018.86 1019.26 1019.32 1019.52 1019.74 1020.06 1020.47 1020.70 1020.93 1021.18 1021.44 1021.75 1021.93 1022.04
1014.81 1014.85 1014.87 1014.79 1014.61 1014.43 1014.19 1014.37 1014.50 1014.63 1014.72 1014.86 1015.06 1015.17 1015.32 1015.45 1015.60 1015.92 1016.26 1016.66 1016.96 1017.21 1017.38 1017.63 1017.80 1018.00 1018.23 1018.38 1018.78 1019.05 1019.46 1019.57 1019.76 1020.01 1020.20 1020.59 1020.70 1020.96 1021.34 1021.69 1022.02 1022.33 1022.45
1015.10 1015.25 1015.22 1015.22 1015.13 1015.03 1014.49 1014.44 1014.52 1014.64 1014.70 1014.78 1014.94 1015.17 1015.41 1015.65 1015.82 1016.03 1016.31 1016.68 1016.97 1017.24 1017.49 1017.69 1017.85 1018.10 1018.34 1018.63 1018.91 1019.13 1019.37 1019.69 1019.91 1020.19 1020.38 1020.61 1020.82 1021.08 1021.47 1021.89 1022.24 1022.61 1022.98
1015.78 1015.77 1015.70 1015.47 1015.43 1015.21 1014.99 1014.83 1014.81 1014.61 1014.55 1014.50 1014.60 1014.94 1015.26 1015.52 1015.71 1015.95 1016.13 1016.46 1016.77 1017.10 1017.48 1017.76 1017.92 1018.13 1018.45 1018.88 1019.15 1019.29 1019.50 1019.55 1019.59 1020.18 1020.49 1020.71 1020.93 1021.28 1021.61 1022.08 1022.36 1022.75 1023.22
1016.13 1016.17 1016.11 1015.96 1015.77 1015.59 1015.41 1015.18 1014.99 1015.00 1014.86 1014.67 1014.35 1014.55 1015.03 1015.44 1015.68 1015.92 1016.24 1016.51 1016.80 1017.01 1017.43 1017.79 1018.12 1018.35 1018.51 1018.80 1019.25 1019.51 1019.51 1019.51 1019.58 1020.01 1020.40 1020.82 1021.03 1021.31 1021.73 1022.17 1022.50 1022.97 1023.39
1016.31 1016.41 1016.35 1016.20 1016.17 1016.06 1015.81 1015.66 1015.47 1015.23 1015.12 1014.91 1014.85 1014.83 1015.27 1015.77 1015.81 1015.83 1016.14 1016.24 1016.57 1016.92 1017.23 1017.58 1018.07 1018.26 1018.37 1018.56 1018.87 1019.36 1019.41 1019.37 1019.73 1020.23 1020.59 1020.86 1021.09 1021.54 1021.85 1022.33 1022.71 1023.04 1023.47
1016.45 1016.54 1016.52 1016.51 1016.48 1016.22 1016.16 1016.11 1015.89 1015.57 1015.30 1015.10 1015.06 1015.13 1015.35 1015.64 1015.91 1015.92 1016.02 1016.24 1016.47 1016.70 1017.12 1017.37 1017.75 1018.16 1018.35 1018.48 1018.78 1019.06 1019.39 1019.55 1019.98 1020.51 1020.97 1021.08 1021.46 1021.65 1021.98 1022.44 1022.75 1023.09 1023.63
1016.58 1016.74 1016.78 1016.73 1016.53 1016.40 1016.48 1016.24 1016.14 1015.87 1015.53 1015.23 1015.18 1015.22 1015.54 1015.81 1016.16 1015.62 1016.96 1016.64 1016.33 1016.58 1016.95 1017.31 1017.74 1018.10 1018.41 1018.49 1018.87 1019.13 1019.49 1019.69 1020.21 1020.70 1021.09 1021.40 1021.71 1021.92 1022.05 1022.42 1022.92 1023.09 1023.66
1016.87 1016.91 1016.95 1016.94 1016.82 1016.84 1016.77 1016.44 1016.25 1016.03 1015.72 1015.55 1015.17 1015.02 1015.57 1016.02 1016.06 1016.01 1016.39 1016.72 1016.24 1016.33 1016.49 1017.42 1017.62 1017.94 1018.57 1018.50 1019.01 1019.23 1019.73 1019.92 1020.37 1020.72 1021.11 1021.54 1021.88 1022.07 1022.12 1022.42 1022.73 1023.22 1023.50
1017.18 1017.31 1017.33 1017.31 1017.25 1017.21 1017.10 1016.70 1016.34 1016.10 1015.91 1015.70 1015.28 1014.98 1015.31 1015.76 1016.23 1016.23 1016.40 1016.87 1016.45 1016.98 1016.55 1017.35 1017.71 1018.32 1018.50 1018.66 1019.18 1019.76 1019.90 1020.08 1020.40 1021.02 1021.07 1021.61 1022.04 1022.28 1022.35 1022.62 1022.75 1023.19 1023.55
1017.44 1017.70 1017.71 1017.61 1017.52 1017.42 1017.19 1016.87 1016.48 1016.05 1015.83 1015.63 1015.34 1015.05 1015.00 1015.49 1015.95 1016.29 1016.30 1016.44 1016.78 1016.88 1016.90 1017.32 1017.86 1018.22 1018.72 1019.26 1019.32 1020.22 1020.41 1020.46 1020.45 1020.95 1021.49 1021.77 1021.97 1022.42 1022.65 1022.83 1023.27 1023.57 1023.83
1017.40 1017.64 1017.86 1017.91 1017.85 1017.70 1017.45 1017.21 1016.88 1016.54 1016.06 1015.63 1015.43 1015.22 1015.15 1015.10 1015.47 1015.96 1016.20 1016.37 1016.46 1016.88 1017.17 1017.44 1017.71 1018.25 1018.57 1019.46 1019.74 1020.73 1020.86 1021.01 1021.21 1021.31 1021.50 1021.66 1021.89 1022.31 1022.72 1023.05 1023.44 1023.92 1023.86
1017.56 1017.76 1018.00 1018.17 1018.19 1018.04 1017.83 1017.66 1017.40 1017.23 1016.77 1016.34 1016.01 1015.74 1015.40 1015.15 1014.85 1015.36 1016.03 1016.14 1016.28 1016.64 1017.07 1017.31 1017.49 1018.20 1019.19 1019.76 1020.38 1021.48 1021.41 1021.11 1021.84 1022.05 1021.75 1021.81 1022.06 1022.30 1022.57 1023.00 1023.56 1023.95 1024.13
1017.95 1018.16 1018.25 1018.41 1018.45 1018.37 1018.17 1017.95 1017.67 1017.23 1016.74 1016.45 1016.26 1015.84 1015.59 1015.22 1014.74 1014.80 1015.31 1016.04 1016.15 1016.52 1016.94 1017.28 1017.45 1018.57 1019.33 1019.34 1019.79 1020.87 1021.69 1021.76 1022.27 1022.06 1022.65 1022.28 1022.55 1022.32 1022.52 1022.83 1023.21 1023.86 1024.48
1018.24 1018.54 1018.60 1018.59 1018.61 1018.46 1018.25 1018.02 1017.77 1017.41 1016.90 1016.69 1016.22 1015.86 1015.42 1015.10 1014.79 1014.64 1014.97 1015.60 1015.98 1016.16 1016.68 1017.08 1017.45 1017.75 1018.58 1019.32 1019.60 1019.61 1021.31 1021.62 1022.35 1022.84 1022.82 1023.09 1022.85 1022.35 1022.07 1022.37 1022.74 1023.49 1024.20
1018.75 1018.72 1018.84 1018.75 1018.64 1018.50 1018.33 1018.16 1018.10 1017.82 1017.48 1016.90 1016.31 1015.94 1015.64 1015.15 1014.72 1014.67 1014.71 1015.28 1015.75 1016.00 1016.39 1016.63 1017.07 1017.45 1017.77 1018.57 1019.38 1019.49 1019.82 1020.18 1021.33 1022.99 1023.43 1023.55 1023.14 1023.10 1023.07 1022.81 1023.25 1023.48 1024.05
1019.53 1019.47 1019.23 1018.99 1018.78 1018.56 1018.39 1018.20 1018.05 1017.79 1017.46 1016.86 1016.26 1015.59 1015.30 1015.02 1014.72 1014.67 1014.70 1014.87 1015.34 1015.70 1015.96 1016.32 1016.64 1017.06 1017.55 1017.85 1018.32 1019.11 1019.70 1020.12 1020.36 1021.38 1022.86 1023.56 1023.44 1023.61 1023.42 1023.34 1023.65 1023.95 1024.34
1020.02 1019.91 1019.72 1019.39 1019.13 1018.76 1018.46 1018.20 1018.03 1017.81 1017.26 1016.86 1016.39 1015.76 1015.13 1014.74 1014.64 1014.40 1014.40 1014.59 1014.77 1015.21 1015.63 1015.95 1016.31 1016.73 1017.01 1017.33 1017.79 1018.18 1018.54 1019.38 1019.88 1020.40 1021.76 1022.81 1023.27 1023.59 1023.70 1023.65 1023.70 1023.94 1024.45
Thickness
5721 5722 5721 5718 5719 5719 5720 5720 5719 5718 5716 5716 5717 5715 5714 5713 5712 5710 5710 5710 5709 5708 5709 5708 5707 5707 5706 5706 5705 5704 5703 5702 5701 5700 5699 5699 5700 5700 5700 5699 5699 5698 5699
5722 5718 5719 5717 5716 5715 5716 5716 5716 5715 5714 5713 5713 5712 5711 5710 5710 5709 5709 5709 5708 5707 5707 5707 5706 5705 5704 5703 5701 5700 5700 5698 5697 5696 5696 5696 5695 5696 5696 5696 5695 5695 5694
5718 5717 5716 5716 5714 5712 5712 5713 5712 5712 5711 5710 5710 5709 5708 5708 5707 5706 5707 5707 5706 5706 5705 5705 5704 5702 5702 5700 5699 5697 5696 5695 5694 5693 5692 5691 5691 5691 5691 5691 5691 5692 5691
5717 5718 5717 5713 5711 5709 5708 5708 5708 5708 5708 5707 5707 5706 5705 5705 5704 5704 5704 5704 5703 5704 5703 5702 5701 5700 5700 5697 5696 5695 5693 5692 5692 5692 5690 5688 5687 5687 5686 5687 5687 5686 5686
5716 5715 5715 5710 5707 5705 5703 5704 5703 5704 5705 5704 5704 5703 5701 5701 5701 5701 5702 5702 5701 5701 5700 5699 5698 5698 5697 5696 5694 5693 5692 5691 5689 5690 5687 5685 5683 5682 5682 5682 5682 5682 5681
5710 5710 5711 5708 5704 5701 5699 5700 5699 5699 5699 5700 5700 5700 5699 5697 5697 5699 5699 5700 5699 5699 5698 5697 5696 5695 5694 5694 5692 5691 5689 5689 5687 5687 5686 5682 5680 5679 5679 5678 5678 5678 5677
5702 5703 5700 5700 5699 5697 5695 5694 5695 5695 5696 5696 5696 5696 5695 5695 5694 5696 5695 5695 5696 5695 5695 5695 5693 5692 5692 5691 5690 5688 5688 5684 5685 5685 5683 5680 5678 5677 5677 5676 5676 5675 5675
5691 5692 5693 5693 5693 5692 5690 5690 5690 5691 5691 5692 5692 5693 5693 5692 5692 5692 5690 5691 5691 5691 5690 5691 5690 5689 5688 5687 5686 5685 5683 5682 5682 5682 5680 5677 5676 5675 5674 5673 5672 5671 5670
5680 5682 5683 5685 5686 5687 5686 5685 5685 5686 5687 5687 5688 5688 5688 5689 5689 5689 5688 5686 5686 5686 5687 5687 5685 5685 5684 5683 5682 5682 5680 5680 5679 5679 5676 5674 5673 5672 5670 5669 5667 5666 5666
5673 5673 5674 5674 5677 5680 5681 5680 5681 5682 5682 5683 5683 5684 5684 5685 5685 5683 5684 5682 5682 5682 5682 5681 5681 5681 5680 5680 5678 5678 5675 5675 5675 5675 5673 5671 5670 5670 5667 5664 5662 5661 5661
5665 5665 5664 5666 5667 5669 5672 5673 5672 5673 5677 5678 5679 5678 5678 5677 5677 5679 5679 5677 5677 5677 5676 5675 5676 5675 5675 5675 5674 5674 5672 5670 5671 5671 5669 5668 5667 5666 5663 5660 5658 5655 5653
5651 5653 5655 5657 5658 5660 5662 5665 5664 5666 5671 5675 5676 5674 5673 5671 5671 5675 5675 5674 5673 5672 5670 5669 5669 5670 5670 5668 5668 5668 5667 5668 5668 5667 5664 5664 5662 5661 5659 5656 5654 5651 5648
5642 5643 5646 5648 5648 5651 5652 5655 5658 5660 5664 5666 5671 5671 5669 5666 5667 5670 5668 5669 5667 5667 5665 5663 5662 5662 5663 5663 5662 5661 5662 5664 5663 5664 5661 5658 5657 5656 5654 5651 5649 5646 5643
5635 5635 5637 5639 5639 5640 5643 5645 5648 5651 5655 5657 5659 5660 5659 5657 5659 5661 5660 5662 5662 5660 5659 5657 5655 5655 5657 5658 5657 5655 5657 5658 5659 5658 5653 5653 5652 5650 5648 5645 5643 5641 5638
5627 5627 5628 5629 5631 5632 5633 5635 5637 5641 5644 5648 5650 5651 5649 5647 5650 5652 5649 5650 5651 5652 5650 5650 5648 5647 5649 5650 5649 5650 5649 5650 5653 5649 5647 5646 5643 5643 5642 5639 5637 5635 5631
5622 5620 5620 5620 5621 5623 5624 5625 5627 5630 5634 5638 5641 5643 5641 5639 5637 5643 5631 5637 5642 5643 5643 5642 5639 5639 5640 5642 5642 5640 5639 5642 5642 5641 5640 5639 5635 5635 5635 5633 5630 5629 5625
5612 5612 5612 5612 5612 5612 5613 5615 5617 5619 5622 5626 5632 5635 5632 5628 5628 5629 5624 5623 5630 5636 5637 5631 5629 5632 5631 5633 5632 5631 5631 5632 5630 5631 5631 5629 5628 5627 5628 5627 5626 5623 5620
5603 5602 5602 5602 5602 5602 5603 5606 5608 5610 5612 5615 5620 5625 5622 5619 5616 5619 5620 5617 5620 5618 5628 5620 5624 5620 5619 5626 5621 5619 5622 5623 5622 5618 5620 5619 5618 5618 5619 5619 5619 5617 5613
5593 5590 5590 5592 5591 5592 5594 5596 5599 5602 5604 5606 5610 5614 5615 5611 5608 5607 5611 5611 5609 5611 5613 5612 5612 5614 5610 5610 5616 5607 5609 5612 5613 5611 5609 5608 5608 5607 5608 5609 5607 5607 5605
5586 5583 5580 5579 5580 5581 5583 5584 5587 5589 5593 5597 5600 5602 5604 5604 5603 5601 5601 5601 5603 5603 5603 5604 5606 5605 5604 5599 5601 5596 5599 5598 5599 5599 5599 5599 5599 5599 5598 5599 5598 5595 5595
5576 5573 5569 5566 5565 5567 5568 5570 5572 5573 5577 5582 5585 5588 5592 5595 5599 5595 5592 5593 5594 5596 5595 5597 5600 5597 5591 5586 5584 5578 5582 5587 5584 5583 5588 5590 5588 5588 5590 5591 5589 5586 5583
5564 5561 5558 5554 5552 5552 5554 5556 5559 5563 5566 5569 5572 5576 5579 5584 5589 5591 5588 5584 5585 5585 5584 5586 5588 5583 5578 5581 5576 5573 5569 5572 5568 5572 5568 5574 5575 5577 5577 5580 5580 5576 5572
5552 5548 5546 5544 5542 5542 5542 5544 5546 5550 5554 5556 5561 5565 5569 5573 5578 5581 5580 5578 5578 5579 5577 5576 5577 5579 5574 5571 5571 5575 5559 5566 5557 5554 5557 5558 5561 5567 5569 5569 5571 5565 5563
5540 5537 5533 5532 5532 5531 5531 5531 5531 5532 5536 5542 5549 5552 5556 5560 5567 5570 5571 5569 5569 5570 5571 5571 5571 5571 5571 5566 5560 5564 5564 5562 5558 5544 5541 5542 5547 5549 5550 5555 5554 5553 5552
5522 5520 5520 5519 5519 5519 5519 5519 5520 5521 5524 5530 5537 5544 5547 5550 5553 5558 5560 5561 5561 5562 5564 5563 5564 5563 5562 5562 5562 5554 5553 5552 5554 5547 5538 5532 5533 5532 5537 5539 5538 5540 5537
5509 5507 5505 5505 5504 5505 5506 5506 5507 5509 5514 5518 5523 5530 5536 5541 5544 5547 5550 5552 5553 5555 5555 5555 5556 5556 5557 5556 5554 5553 5553 5548 5546 5545 5536 5527 5526 5522 5522 5524 5526 5525 5522